Home   Weather   Augusta   Past weeks
Flag for USA

Past Weather in Augusta, Georgia, USA — Yesterday and Last 2 Weeks

Now
52 °F

Mostly cloudy.


Feels Like: 51 °F
Forecast: 64 / 46 °F
Wind: 5 mph from North

Location: Daniel Field

Current Time: Dec 7, 2019 at 3:59:18 am

Latest Report: Dec 7, 2019 at 2:53 am


Visibility: 10 mi

Pressure: 30.18 "Hg

Humidity: 64%

Dew Point: 40 °F

Location of AugustaLocation

Past Weather in Augusta — Graph

°F

Augusta Temperature Yesterday

Maximum temperature yesterday: 61 °F (at 2:53 pm)
Minimum temperature yesterday: 44 °F (at 2:53 am)
Average temperature yesterday: 53 °F

High & Low Weather Summary for the Past Weeks

 TemperatureHumidityPressure
High73 °F (Nov 27, 1:53 pm)90% (Nov 23, 8:53 pm)30.29 "Hg (Nov 23, 8:53 pm)
Low35 °F (Dec 3, 6:53 am)17% (Dec 5, 2:53 pm)29.59 "Hg (Dec 1, 3:53 pm)
Average56 °F59%29.97 "Hg
* Reported Nov 22 1:53 am — Dec 7 1:53 am, Augusta. Weather by CustomWeather, © 2019

Note: Actual official high and low records may vary slightly from our data, if they occured in-between our weather recording intervals... More about our weather records

Augusta Weather History for the Previous 24 Hours

Scroll right to see more
 ConditionsComfort  
Time TempWeatherWind HumidityBarometerVisibility
1:53 am
Sat, Dec 7
53 °FOvercast.6 mph64%30.18 "Hg10 mi
12:53 am53 °FOvercast.5 mph64%30.19 "Hg10 mi
11:53 pm
Fri, Dec 6
54 °FMostly cloudy.No wind62%30.19 "Hg10 mi
10:53 pm54 °FMostly cloudy.No wind59%30.19 "Hg10 mi
9:53 pm53 °FPassing clouds.5 mph64%30.19 "Hg10 mi
8:53 pm56 °FOvercast.No wind53%30.18 "Hg10 mi
7:53 pm57 °FOvercast.6 mph53%30.19 "Hg10 mi
6:53 pm57 °FMostly cloudy.No wind51%30.20 "Hg10 mi
5:53 pm57 °FPassing clouds.No wind49%30.19 "Hg10 mi
4:53 pm59 °FScattered clouds.No wind44%30.17 "Hg10 mi
3:53 pm61 °FPassing clouds.3 mph38%30.15 "Hg10 mi
2:53 pm61 °FSunny.5 mph38%30.14 "Hg10 mi
1:53 pm60 °FSunny.3 mph36%30.18 "Hg10 mi
12:53 pm60 °FPartly sunny.No wind33%30.22 "Hg10 mi
11:53 am59 °FPartly sunny.3 mph39%30.23 "Hg10 mi
10:53 am56 °FPassing clouds.3 mph44%30.24 "Hg10 mi
9:53 am51 °FSunny.3 mph54%30.24 "Hg10 mi
8:53 am48 °FSunny.No wind59%30.23 "Hg9 mi
7:53 am45 °FSunny.No wind65%30.24 "Hg10 mi
6:53 am44 °FClear.No wind71%30.23 "Hg10 mi
5:53 am45 °FClear.No wind63%30.21 "Hg10 mi
4:53 am46 °FClear.No wind58%30.20 "Hg10 mi
3:53 am45 °FClear.No wind65%30.21 "Hg10 mi
Weather by CustomWeather, © 2019

See weather overview

Advertising